User: anonymous   Login
Location: Bethera
(33.2010°N, 79.7880°W)
Time: 13:55:33
(UTC-04:00)
Language:

Cosmos 1833 Rocket - Orbit

View from above orbital plane
View from above orbital plane
View from above satellite
View from above satellite

Ground track
Ground track

The orbit data is extracted from the following two-line orbital elements,

1 17590U 87027B   17116.87151355 -.00000059 +00000-0 -54790-5 0  9993
2 17590 071.0024 258.0302 0004645 356.1258 003.9828 14.16738825556626
Epoch (UTC): 26 April 2017 20:54:58
Eccentricity: 0.0004645
inclination: 71.0024°
perigee height: 833 km
apogee height: 840 km
right ascension of ascending node: 258.0302°
argument of perigee: 356.1258°
revolutions per day: 14.16738825
mean anomaly at epoch: 3.9828°
orbit number at epoch: 55662

The dashed part of the orbit path shows where the satellite is in the earth's shadow,  

DLR